FW8647 Weather Reports


time (UTC)temp
F
wind
direction
speed
knots
gust
knots
rain 1hr
in
rain 24hr
in
rain mn
in
humidity
%
barometer
mb
20260503015752 39 247 0.0 0.0 0.00 0.00 0.00 47 1018.6
20260503014751 39 143 0.0 0.0 0.00 0.00 0.00 46 1018.7
20260503013746 39 132 0.0 0.0 0.00 0.00 0.00 46 1018.5
20260503012746 39 134 0.9 0.9 0.00 0.00 0.00 46 1018.5
20260503011746 39 137 0.9 0.9 0.00 0.00 0.00 46 1018.4
20260503010745 40 221 0.9 0.9 0.00 0.00 0.00 46 1018.3
20260503005740 40 245 0.9 0.9 0.00 0.00 0.00 45 1018.3
20260503004739 40 264 0.0 0.0 0.00 0.00 0.00 46 1018.3
20260503003734 40 294 0.0 0.9 0.00 0.00 0.00 45 1018.0
20260503002733 41 276 0.9 0.9 0.00 0.00 0.00 43 1018.0
20260503001732 42 311 2.6 4.3 0.00 0.00 0.00 40 1018.1
20260503000727 42 323 2.6 4.3 0.00 0.00 0.00 39 1018.0
20260502235726 42 329 2.6 2.6 0.00 0.00 0.00 39 1018.1
20260502234726 43 341 2.6 5.2 0.00 0.00 0.00 38 1018.0
20260502233726 43 312 3.5 5.2 0.00 0.00 0.00 38 1017.8
20260502232724 44 336 0.9 1.7 0.00 0.00 0.00 39 1018.0
20260502231724 43 327 5.2 7.8 0.00 0.00 0.00 40 1018.0
20260502230721 43 311 7.0 7.8 0.00 0.00 0.00 41 1018.0
20260502225720 43 327 4.3 7.0 0.00 0.00 0.00 43 1018.0
20260502224719 42 298 2.6 4.3 0.00 0.00 0.00 43 1018.1
20260502223714 42 345 1.7 1.7 0.00 0.00 0.00 45 1018.1
20260502222709 42 295 1.7 2.6 0.00 0.00 0.00 46 1017.9
20260502221708 42 331 0.0 0.9 0.00 0.00 0.00 50 1018.0
20260502220706 42 332 0.9 1.7 0.00 0.00 0.00 51 1018.2
20260502215706 42 1 0.9 0.9 0.00 0.00 0.00 51 1018.3
20260502214706 42 11 0.0 0.0 0.00 0.00 0.00 53 1018.1
20260502213706 41 339 2.6 4.3 0.00 0.00 0.00 56 1018.3
20260502212702 42 297 0.0 0.0 0.00 0.00 0.00 57 1018.1
20260502211701 41 334 0.9 0.9 0.00 0.00 0.00 58 1018.2
20260502210701 41 351 0.9 1.7 0.00 0.00 0.00 59 1018.3
20260502205702 41 358 3.5 5.2 0.00 0.00 0.00 60 1018.3
20260502204701 41 296 4.3 6.1 0.00 0.00 0.00 55 1018.2
20260502203656 42 305 4.3 7.8 0.00 0.00 0.00 54 1018.5
20260502202654 41 328 4.3 6.1 0.00 0.00 0.00 55 1018.4
20260502201649 41 307 4.3 7.0 0.00 0.00 0.00 57 1018.5
20260502200647 41 303 7.0 9.6 0.00 0.00 0.00 60 1018.4
20260502195643 41 299 2.6 5.2 0.00 0.00 0.00 61 1018.7
20260502194641 40 332 3.5 5.2 0.00 0.00 0.00 63 1018.7
20260502193640 40 336 0.0 1.7 0.00 0.00 0.00 66 1019.0
20260502192638 39 293 0.0 1.7 0.00 0.00 0.00 68 1018.9
20260502191633 39 335 0.9 2.6 0.00 0.00 0.00 67 1019.0
20260502190628 39 303 1.7 2.6 0.00 0.00 0.00 66 1019.0
20260502185626 39 275 6.1 7.8 0.00 0.00 0.00 68 1019.3
20260502184625 40 325 11.3 13.9 0.00 0.00 0.00 65 1019.0
20260502183623 40 304 4.3 6.1 0.00 0.00 0.00 61 1018.9
20260502182621 40 221 4.3 6.1 0.00 0.00 0.00 60 1018.8
20260502181620 40 297 6.1 7.8 0.00 0.00 0.00 61 1019.3
20260502180615 41 269 5.2 7.0 0.00 0.00 0.00 61 1019.1
20260502163602 40 343 8.7 11.3 0.00 0.00 0.00 63 1019.1
20260502162601 40 338 12.2 13.9 0.00 0.00 0.00 62 1018.9
20260502161601 40 329 11.3 13.0 0.00 0.00 0.00 65 1018.8
20260502160557 40 345 10.4 12.2 0.00 0.00 0.00 66 1018.9
20260502151524 39 325 12.2 14.8 0.00 0.00 0.00 66 1019.3
20260502150519 40 353 10.4 13.9 0.00 0.00 0.00 63 1018.7
20260502130457 37 327 8.7 11.3 0.00 0.00 0.00 71 1019.5
20260502123451 36 335 9.6 11.3 0.00 0.00 0.00 76 1019.6
20260502122450 36 281 8.7 13.0 0.00 0.00 0.00 76 1019.4
20260502121445 35 316 9.6 11.3 0.00 0.00 0.00 76 1019.6
20260502120444 35 323 7.0 7.8 0.00 0.00 0.00 76 1019.5
20260502115444 35 331 8.7 12.2 0.00 0.00 0.00 76 1019.6
20260502114443 34 301 7.8 8.7 0.00 0.00 0.00 77 1019.1
20260502113443 34 280 5.2 7.0 0.00 0.00 0.00 77 1019.5
20260502112439 34 276 1.7 2.6 0.00 0.00 0.00 76 1019.5
20260502111439 34 341 4.3 7.8 0.00 0.00 0.00 76 1019.1
20260502110434 34 285 1.7 2.6 0.00 0.00 0.00 78 1018.9
20260502105434 34 259 0.9 1.7 0.00 0.00 0.00 80 1018.9
20260502104429 33 261 0.0 0.9 0.00 0.00 0.00 82 1019.1
20260502103424 0 0.0 0.0 0.00 0.00 0.00 1018.7
20260502102423 0 0.0 0.0 0.00 0.00 0.00 1019.1
20260502101419 33 202 0.0 0.9 0.00 0.00 0.00 84 1018.7
20260502100416 33 202 0.9 1.7 0.00 0.00 0.00 84 1018.8
20260502091401 33 202 0.0 0.0 0.00 0.00 0.00 83 1018.2
20260502090401 33 202 0.0 0.0 0.00 0.00 0.00 83 1018.4
20260502071336 33 202 0.0 0.0 0.00 0.00 0.00 81 1018.6
20260502070332 33 202 0.0 0.0 0.00 0.00 0.00 80 1018.3
20260502065329 33 202 0.0 0.0 0.00 0.00 0.00 79 1018.4
20260502064324 33 202 0.0 0.0 0.00 0.00 0.00 78 1018.4
20260502063319 34 202 0.0 0.0 0.00 0.00 0.00 78 1018.4
20260502062319 34 201 2.6 6.1 0.00 0.00 0.00 78 1018.4
20260502061315 33 201 0.0 0.0 0.00 0.00 0.00 78 1018.6
20260502060312 33 201 0.0 0.0 0.00 0.00 0.00 77 1018.7
20260502055308 33 201 0.0 0.0 0.00 0.00 0.00 77 1019.0
20260502054304 33 201 0.0 0.0 0.00 0.00 0.00 77 1018.7
20260502053304 34 201 0.0 0.0 0.00 0.00 0.00 76 1018.8
20260502052300 33 201 0.0 0.0 0.00 0.00 0.00 76 1018.9
20260502051256 33 202 0.9 1.7 0.00 0.00 0.00 76 1018.8
20260502050254 33 209 0.0 0.0 0.00 0.00 0.00 75 1018.7
20260502045254 33 224 0.9 2.6 0.00 0.00 0.00 73 1018.5
20260502044253 34 285 1.7 1.7 0.00 0.00 0.00 73 1018.6
20260502043248 33 269 0.0 0.0 0.00 0.00 0.00 73 1018.7
20260502042245 33 257 0.0 0.0 0.00 0.00 0.00 73 1018.8
20260502041240 33 261 2.6 2.6 0.00 0.00 0.00 72 1018.6
20260502040239 34 255 2.6 2.6 0.00 0.00 0.00 71 1018.2
20260502035238 34 221 2.6 2.6 0.00 0.00 0.00 70 1018.4
20260502034233 34 277 2.6 2.6 0.00 0.00 0.00 70 1018.4
20260502033229 34 210 1.7 1.7 0.00 0.00 0.00 68 1018.4
20260502032227 34 267 1.7 1.7 0.00 0.00 0.00 68 1018.2
20260502031223 34 213 0.0 0.0 0.00 0.00 0.00 69 1018.1
20260502030219 35 293 2.6 2.6 0.00 0.00 0.00 68 1018.2
20260502025219 35 229 0.0 0.0 0.00 0.00 0.00 67 1018.2
20260502024215 35 267 0.0 0.0 0.00 0.00 0.00 66 1018.0
20260502023215 36 290 0.0 0.0 0.00 0.00 0.00 65 1018.0
20260502022215 36 259 0.0 0.0 0.00 0.00 0.00 64 1018.0
20260502021210 36 323 2.6 4.3 0.00 0.00 0.00 63 1018.0
20260502020210 37 335 3.5 4.3 0.00 0.00 0.00 63 1017.8